Location: Ermatingen
(47.6706°N, 9.0857°E)
Time: 03:14:30
(UTC+00:00)

CZ-2C R/B - Pass Details

Date: 18 September 2020
Orbit: 704 x 907 km, 98.1° (Epoch: 24 October)

Event Time Altitude Azimuth Distance (km) Brightness Sun altitude
Rises 17:56:28 0° 157° (SSE) 3,245 5.9 -5.4°
Reaches altitude 10° 17:58:43 10° 156° (SSE) 2,350 5.2 -5.8°
Maximum altitude 18:03:54 71° 73° (ENE) 871 3.2 -6.7°
Drops below altitude 10° 18:09:26 10° 350° (N) 2,500 5.9 -7.6°
Sets 18:11:53 0° 349° (NNW) 3,468 6.7 -8.0°
